Regional Weather Roundup
Issued by NWS Portland, ME

Current Version | Previous Version | Text Only | Print | Product List | Glossary Off
Versions: 1 2 3 4 5 6 7 8 9 10 11 12 13 14 15 16 17 18 19 20 21 22 23 24 25 26 27 28 29 30 31 32 33 34 35 36 37 38 39 40 41 42 43 44 45 46 47 48 49 50
000 ASUS41 KGYX 222206 RWRGYX WEATHER ROUNDUP FOR MAINE AND NEW HAMPSHIRE NATIONAL WEATHER SERVICE GRAY ME 600 PM EDT SUN OCT 22 2017 MEZ002-005-006-010-012-015-018-020-021-024-026-027-029-222300- MAINE CITY SKY/WX TMP DP RH WIND PRES REMARKS PORTLAND PTCLDY 54 48 80 E14 30.44S SANFORD CLOUDY 54 52 93 E7 30.43S BAR HARBOR CLEAR 52 46 80 E7 30.47S WISCASSET PTCLDY 55 44 66 E3 30.45F ROCKLAND CLEAR 53 46 77 E9 30.45S FRYEBURG NOT AVBL LEWISTONAUBURN CLOUDY 57 50 77 SE5 30.43R AUGUSTA CLEAR 57 45 64 SE9 30.43S WATERVILLE CLEAR 58 46 64 VRB3 30.40S BANGOR PTCLDY 58 40 51 S8 30.45R GREENVILLE N/A 51 37 58 SE7 30.39F MILLINOCKET CLEAR 53 39 59 CALM 30.44S HOULTON CLEAR 50 34 54 SE5 30.43S PRESQUE ISLE CLOUDY 52 30 43 S5 30.44S FRENCHVILLE CLOUDY 48 23 37 S8 30.41F CARIBOU CLOUDY 51 28 41 SE3 30.42S $$ NHZ002-005-008-009-011-012-014-222300- NEW HAMPSHIRE CITY SKY/WX TMP DP RH WIND PRES REMARKS ROCHESTER CLOUDY 55 51 86 E5 30.41F NASHUA PTCLDY 61 55 81 E8 30.39S MANCHESTER MOCLDY 62 55 77 VRB3 30.38R CONCORD CLOUDY 62 54 74 SE7 30.39R LACONIA CLOUDY 62 53 72 NE6 30.39S PLYMOUTH FAIR 60 51 73 CALM 30.38R BERLIN PTCLDY 61 47 59 SE5 30.37S WHITEFIELD PTCLDY 64 49 57 N3 30.34S JAFFREY CLOUDY 65 51 60 SE3 30.38S KEENE CLOUDY 62 44 51 CALM 30.35S LEBANON CLOUDY 65 50 58 SE5 30.33R MT WASHINGTON PTCLDY 50 21 32 SW22 N/A $$ VTZ005-007-008-222300- VERMONT CITY SKY/WX TMP DP RH WIND PRES REMARKS ST JOHNSBURY N/A 68 46 45 MISG 30.31R BURLINGTON MOCLDY 72 39 30 S10 30.26S $$ MAZ007-012-024-CTZ003-RIZ002-NYZ038-NYZ072-222300- SOUTHERN NEW ENGLAND AND NY CITY SKY/WX TMP DP RH WIND PRES REMARKS BOSTON PTCLDY 58 56 93 E8 30.40S WORCESTER CLOUDY 70 37 29 VRB3 30.39R NANTUCKET PTCLDY 59 59 100 S6 30.40S PROVIDENCE PTCLDY 65 51 60 S3 30.37S HARTFORD MOCLDY 68 43 40 S7 30.35S ALBANY MOCLDY 71 42 35 S6 30.30S NEW YORK CITY CLOUDY 68 50 52 S13 30.35F $$ ANZ081-ANZ082-ANZ150-NHZ014-MEZ023>029-222300- COASTAL MARINE OBSERVATIONS STATION/POSITION TIME TEMP WIND PRES WAVE AIR SEA DIR/SP/G HT/PER (UTC) (F) (DEG/KT/KT) (MB) (FT/S) MOUNT DESERT ROC 2100 54 70/ 17/ 18 1031.1S MATINICUS ROCK 2100 54 80/ 17/ 18 1030.4R ISLE OF SHOALS 2100 56 40/ 9/ 11 1029.6R JEFFREYS LEDGE 2136 58 N/A 2/10 GEORGES BANK BUO 2050 62 61 1029.9 2/ 9 $$ .............KEY.............. WCI - WIND CHILL TC - TEMPERATURE IN CELSIUS VSB - VISIBILITY IN MILES HX - HEAT INDEX FAIR- INDICATES FEW OR NO CLOUDS BELOW 12,000 FT, WITH NO SIGNIFICANT WEATHER AND/OR OBSTRUCTIONS TO VISIBILITY.

USA.gov is the U.S. government's official web portal to all federal, state and local government web resources and services.